Météo par heure à Juraszki

Ce jour, 20 Juin, Dimanche

Heure Température Précipitation Vent Pression Humidité
00:00 +19°C° 0.1 mm 1 m/s 726 mmHg 88%
01:00 +19°C° 0.1 mm 1 m/s 726 mmHg 89%
02:00 +19°C° 0 mm 1 m/s 726 mmHg 89%
03:00 +18°C° 0 mm 1 m/s 726 mmHg 89%
04:00 +18°C° 0 mm 1 m/s 725 mmHg 90%
05:00 +20°C° 0 mm 1 m/s 725 mmHg 84%
06:00 +22°C° 0 mm 1 m/s 726 mmHg 78%
07:00 +24°C° 0 mm 1 m/s 726 mmHg 73%
08:00 +25°C° 0.1 mm 1 m/s 726 mmHg 67%
09:00 +27°C° 0.1 mm 1 m/s 726 mmHg 62%
10:00 +28°C° 0.1 mm 1 m/s 726 mmHg 57%
11:00 +29°C° 0.1 mm 1 m/s 726 mmHg 54%
12:00 +30°C° 0.1 mm 2 m/s 725 mmHg 50%
13:00 +30°C° 0.1 mm 2 m/s 725 mmHg 47%
14:00 +30°C° 0 mm 2 m/s 725 mmHg 48%
15:00 +30°C° 0 mm 2 m/s 725 mmHg 48%
16:00 +30°C° 0 mm 2 m/s 725 mmHg 49%
17:00 +28°C° 0 mm 2 m/s 724 mmHg 58%
18:00 +26°C° 0 mm 2 m/s 724 mmHg 68%
19:00 +24°C° 0 mm 1 m/s 724 mmHg 78%
20:00 +23°C° 0 mm 1 m/s 724 mmHg 81%
21:00 +22°C° 0 mm 1 m/s 724 mmHg 85%
22:00 +20°C° 0 mm 1 m/s 724 mmHg 88%
23:00 +20°C° 0 mm 1 m/s 723 mmHg 88%

Demain, 21 Juin, Lundi

Heure Température Précipitation Vent Pression Humidité
00:00 +20°C° 0 mm 1 m/s 723 mmHg 89%
01:00 +19°C° 0 mm 1 m/s 723 mmHg 89%
02:00 +19°C° 0 mm 1 m/s 723 mmHg 88%
03:00 +19°C° 0 mm 1 m/s 722 mmHg 88%
04:00 +19°C° 0 mm 1 m/s 722 mmHg 87%
05:00 +21°C° 0 mm 1 m/s 722 mmHg 80%
06:00 +23°C° 0 mm 1 m/s 722 mmHg 73%
07:00 +25°C° 0 mm 1 m/s 723 mmHg 66%
08:00 +27°C° 0 mm 1 m/s 723 mmHg 60%
09:00 +29°C° 0 mm 1 m/s 723 mmHg 54%
10:00 +30°C° 0 mm 1 m/s 723 mmHg 48%
11:00 +31°C° 0 mm 1 m/s 722 mmHg 46%
12:00 +31°C° 0 mm 1 m/s 722 mmHg 43%
13:00 +32°C° 0 mm 1 m/s 722 mmHg 41%
14:00 +32°C° 0 mm 2 m/s 722 mmHg 44%
15:00 +31°C° 0 mm 2 m/s 722 mmHg 46%
16:00 +31°C° 0 mm 2 m/s 722 mmHg 49%
17:00 +29°C° 0.4 mm 2 m/s 721 mmHg 58%
18:00 +27°C° 0.4 mm 1 m/s 721 mmHg 67%
19:00 +25°C° 0.4 mm 1 m/s 721 mmHg 76%
20:00 +24°C° 2.2 mm 1 m/s 722 mmHg 82%
21:00 +21°C° 2.2 mm 2 m/s 722 mmHg 88%
22:00 +20°C° 2.2 mm 2 m/s 723 mmHg 94%
23:00 +19°C° 0.6 mm 2 m/s 723 mmHg 95%

Après-demain, 22 Juin, Mardi

Heure Température Précipitation Vent Pression Humidité
00:00 +19°C° 0.6 mm 2 m/s 723 mmHg 96%
01:00 +20°C° 0.6 mm 1 m/s 722 mmHg 96%
02:00 +20°C° 1.5 mm 1 m/s 722 mmHg 97%
03:00 +20°C° 1.5 mm 1 m/s 722 mmHg 97%
04:00 +20°C° 1.5 mm 1 m/s 722 mmHg 97%
05:00 +21°C° 0 mm 1 m/s 723 mmHg 94%
06:00 +22°C° 0 mm 1 m/s 723 mmHg 92%
07:00 +22°C° 0 mm 1 m/s 724 mmHg 89%
08:00 +24°C° 0.2 mm 1 m/s 724 mmHg 84%
09:00 +25°C° 0.2 mm 1 m/s 724 mmHg 79%
10:00 +26°C° 0.2 mm 1 m/s 724 mmHg 74%
11:00 +27°C° 0.3 mm 1 m/s 724 mmHg 72%
12:00 +27°C° 0.3 mm 1 m/s 725 mmHg 69%
13:00 +28°C° 0.3 mm 1 m/s 725 mmHg 67%
14:00 +28°C° 0.8 mm 1 m/s 725 mmHg 69%
15:00 +28°C° 0.8 mm 1 m/s 725 mmHg 71%
16:00 +28°C° 0.8 mm 1 m/s 725 mmHg 73%
17:00 +26°C° 1 mm 1 m/s 725 mmHg 77%
18:00 +25°C° 1 mm 1 m/s 725 mmHg 81%
19:00 +24°C° 1 mm 1 m/s 725 mmHg 85%
20:00 +23°C° 0.3 mm 1 m/s 725 mmHg 88%
21:00 +22°C° 0.3 mm 1 m/s 725 mmHg 90%
22:00 +21°C° 0.3 mm 1 m/s 725 mmHg 92%
23:00 +21°C° 0 mm 1 m/s 725 mmHg 92%

23 Juin, Mercredi

Heure Température Précipitation Vent Pression Humidité
00:00 +21°C° 0 mm 1 m/s 724 mmHg 93%
01:00 +20°C° 0 mm 1 m/s 724 mmHg 93%
02:00 +20°C° 0 mm 1 m/s 724 mmHg 93%
03:00 +20°C° 0 mm 1 m/s 724 mmHg 93%
04:00 +20°C° 0 mm 1 m/s 724 mmHg 93%
05:00 +21°C° 0 mm 1 m/s 725 mmHg 89%
06:00 +23°C° 0 mm 1 m/s 725 mmHg 85%
07:00 +25°C° 0 mm 1 m/s 725 mmHg 81%
08:00 +26°C° 0.2 mm 1 m/s 726 mmHg 76%
09:00 +27°C° 0.2 mm 1 m/s 726 mmHg 70%
10:00 +29°C° 0.2 mm 1 m/s 726 mmHg 65%
11:00 +29°C° 0.5 mm 2 m/s 726 mmHg 65%
12:00 +29°C° 0.5 mm 2 m/s 727 mmHg 65%
13:00 +29°C° 0.5 mm 3 m/s 727 mmHg 65%
14:00 +29°C° 0.4 mm 3 m/s 727 mmHg 65%
15:00 +28°C° 0.4 mm 3 m/s 727 mmHg 65%
16:00 +28°C° 0.4 mm 3 m/s 728 mmHg 65%
17:00 +27°C° 0.1 mm 2 m/s 728 mmHg 70%
18:00 +25°C° 0.1 mm 1 m/s 728 mmHg 75%
19:00 +24°C° 0.1 mm 1 m/s 728 mmHg 80%
20:00 +22°C° 0 mm 1 m/s 728 mmHg 84%
21:00 +21°C° 0 mm 1 m/s 729 mmHg 89%
22:00 +19°C° 0 mm 1 m/s 729 mmHg 93%
23:00 +19°C° 0 mm 1 m/s 729 mmHg 94%

24 Juin, Jeudi

Heure Température Précipitation Vent Pression Humidité
00:00 +19°C° 0 mm 1 m/s 729 mmHg 95%
01:00 +18°C° 0 mm 1 m/s 729 mmHg 96%
02:00 +18°C° 0 mm 1 m/s 728 mmHg 96%
03:00 +18°C° 0 mm 1 m/s 728 mmHg 96%
04:00 +18°C° 0 mm 1 m/s 728 mmHg 96%
05:00 +19°C° 0 mm 1 m/s 728 mmHg 92%
06:00 +20°C° 0 mm 1 m/s 729 mmHg 89%
07:00 +21°C° 0 mm 1 m/s 729 mmHg 86%
08:00 +23°C° 0 mm 1 m/s 729 mmHg 80%
09:00 +24°C° 0 mm 1 m/s 729 mmHg 75%
10:00 +26°C° 0 mm 1 m/s 729 mmHg 69%
11:00 +28°C° 0.1 mm 1 m/s 728 mmHg 64%
12:00 +29°C° 0.1 mm 2 m/s 728 mmHg 60%
13:00 +31°C° 0.1 mm 2 m/s 728 mmHg 55%
14:00 +31°C° 0 mm 2 m/s 727 mmHg 54%
15:00 +31°C° 0 mm 2 m/s 727 mmHg 54%
16:00 +31°C° 0 mm 2 m/s 727 mmHg 53%
17:00 +30°C° 0.4 mm 2 m/s 726 mmHg 63%
18:00 +28°C° 0.4 mm 2 m/s 726 mmHg 73%
19:00 +26°C° 0.4 mm 2 m/s 725 mmHg 83%
20:00 +24°C° 2.5 mm 2 m/s 725 mmHg 86%
21:00 +23°C° 2.5 mm 1 m/s 725 mmHg 90%
22:00 +22°C° 2.5 mm 1 m/s 725 mmHg 93%
23:00 +21°C° 3.5 mm 1 m/s 725 mmHg 94%

25 Juin, Vendredi

Heure Température Précipitation Vent Pression Humidité
00:00 +21°C° 3.5 mm 1 m/s 725 mmHg 96%
01:00 +20°C° 3.5 mm 1 m/s 725 mmHg 97%
02:00 +20°C° 0 mm 1 m/s 725 mmHg 97%
03:00 +19°C° 0 mm 1 m/s 726 mmHg 97%
04:00 +18°C° 0 mm 2 m/s 726 mmHg 97%
05:00 +18°C° 0.1 mm 2 m/s 727 mmHg 97%
06:00 +18°C° 0.1 mm 2 m/s 727 mmHg 96%
07:00 +19°C° 0.1 mm 1 m/s 728 mmHg 96%
08:00 +18°C° 0.1 mm 2 m/s 728 mmHg 92%
09:00 +19°C° 0.1 mm 2 m/s 728 mmHg 87%
10:00 +20°C° 0.1 mm 2 m/s 729 mmHg 83%
11:00 +20°C° 0.1 mm 2 m/s 729 mmHg 80%
12:00 +21°C° 0.1 mm 2 m/s 729 mmHg 77%
13:00 +21°C° 0.1 mm 2 m/s 729 mmHg 73%
14:00 +23°C° 0 mm 2 m/s 729 mmHg 72%
15:00 +23°C° 0 mm 2 m/s 729 mmHg 70%
16:00 +23°C° 0 mm 2 m/s 728 mmHg 68%
17:00 +21°C° 0 mm 2 m/s 728 mmHg 73%
18:00 +20°C° 0 mm 2 m/s 728 mmHg 79%
19:00 +19°C° 0 mm 2 m/s 728 mmHg 84%
20:00 +18°C° 0 mm 2 m/s 729 mmHg 87%
21:00 +17°C° 0 mm 2 m/s 729 mmHg 89%
22:00 +16°C° 0 mm 1 m/s 729 mmHg 92%
23:00 +16°C° 0 mm 1 m/s 729 mmHg 93%
Voir plus

Nous avons besoin de votre consentement

Meteoprog et ses fournisseurs de services peuvent stocker et accéder à des données personnelles telles que des cookies, des identifiants d'appareils ou d'autres technologies similaires sur votre appareil et traiter ces données pour personnaliser le contenu et les publicités, ainsi que pour fournir des fonctionnalités de médias sociaux et analyser le trafic.

  • Stocker et/ou accéder à des informations sur votre appareil

    Des cookies, des identifiants d'appareils ou d'autres informations peuvent être stockés ou accessibles sur votre appareil aux fins indiquées ci-dessus.

  • Annonces et contenus personnalisés, mesure des annonces et des contenus, connaissance de l'audience et développement de produits

    Les annonces et le contenu peuvent être personnalisés en fonction d'un profil. D'autres données peuvent être ajoutées pour mieux personnaliser les annonces et le contenu. Les performances des publicités et du contenu peuvent être mesurées. Il est possible d'obtenir des informations sur le public qui a vu les publicités et le contenu. Ces données peuvent être utilisées pour développer ou améliorer l'expérience de l'utilisateur, les systèmes et les logiciels.

En cliquant sur "J'accepte", vous autorisez l'utilisation de cookies, des identifiants d'appareils, des balises web ou d'autres technologies similaires. Vos paramètres peuvent être modifiés dans le navigateur de votre appareil.

Dans certains cas, des intérêts légitimes peuvent être invoqués plutôt qu'un consentement. Vous pouvez en savoir plus à ce sujet dans notre Politique de confidentialité et de cookies.